Regional Weather Roundup
Issued by NWS

Home | Current Version | Previous Version | Text Only | Print | Product List | Glossary On
Versions: 1 2 3 4 5 6 7 8 9 10 11 12 13 14 15 16 17 18 19 20 21 22 23 24 25 26 27 28 29 30 31 32 33 34 35 36 37 38 39 40 41 42 43 44 45 46 47 48 49 50
000
ASUS43 KMKX 200800
RWRWI

WISCONSIN REGIONAL WEATHER ROUNDUP
NATIONAL WEATHER SERVICE MILWAUKEE/SULLIVAN WI
300 AM CDT SAT SEP 20 2014

NOTE: "FAIR" INDICATES FEW OR NO CLOUDS BELOW 12,000 FEET WITH NO
SIGNIFICANT WEATHER AND/OR OBSTRUCTIONS TO VISIBILITY.

WIZ001-002-006>008-014>016-023>028-200900-
NORTHWEST WISCONSIN

CITY           SKY/WX    TMP DP  RH WIND       PRES   REMARKS
SUPERIOR ARPT  FOG       56  56 100 CALM      29.59F VSB 1/4
ASHLAND        MOCLDY    66  63  90 SW9       29.60F
HAYWARD        CLOUDY    65  64  97 SW7       29.64F
SIREN          CLOUDY    66  64  94 SW6       29.65S
RICE LAKE      CLOUDY    67  64  92 SW7       29.68F FOG
LADYSMITH      CLOUDY    66  64  92 S7        29.69F
EAU CLAIRE     NOT AVBL
MENOMONIE      CLOUDY    70  65  84 SW13      29.68F
NEW RICHMOND   CLOUDY    69  67  95 SW12      29.68S
OSCEOLA        CLOUDY    69  69  99 S7        29.69S
$$

WIZ003>005-009-010-017-018-200900-
NORTH CENTRAL WISCONSIN

CITY           SKY/WX    TMP DP  RH WIND       PRES   REMARKS
WOODRUFF       CLOUDY    64  60  87 SW7       29.68F
RHINELANDER    CLOUDY    62  58  86 SW9       29.70S
EAGLE RIVER    CLOUDY    63  56  80 SW9       29.68S
LAND O LAKES   CLOUDY    64  58  82 SW5       29.68F
PHILLIPS       CLOUDY    65  62  91 SW10G16   29.67S
TOMAHAWK       CLOUDY    63  58  84 SW5       29.71S
MEDFORD        CLOUDY    63  60  90 SW8       29.71S
MERRILL        CLOUDY    63  59  86 SW6       29.72R
$$

WIZ029-030-035-036-043>047-200900-
CENTRAL WISCONSIN

CITY           SKY/WX    TMP DP  RH WIND       PRES   REMARKS
WAUSAU         CLOUDY    64  58  80 SW9       29.71S
MOSINEE        LGT RAIN  61  59  94 S9        29.74S
MARSHFIELD     CLOUDY    65  62  90 S13       29.73R
STEVENS POINT  LGT RAIN  63  57  82 S14G22    29.76R
WAUPACA        HVY RAIN  64  60  87 SW16G24   29.78R
WAUTOMA        RAIN      63  61  94 VRB7      29.78F FOG
WISC RAPIDS    RAIN      64  62  93 S17G24    29.75F FOG
CAMP DOUGLAS   LGT RAIN  66  66 100 SW16G22   29.75F
$$

WIZ011>013-019>022-031-037>040-048>050-200900-
NORTHEAST WISCONSIN

CITY           SKY/WX    TMP DP  RH WIND       PRES   REMARKS
ANTIGO         CLOUDY    62  57  85 SW13G18   29.73R
STURGEON BAY   CLOUDY    63  54  72 SW8       29.75S
GREEN BAY      LGT RAIN  64  56  75 SW10      29.75S
MANITOWOC      NOT AVBL
APPLETON       TSTM      63  54  72 SW15      29.77R
CLINTONVILLE   HVY RAIN  63  55  77 SW14      29.74R
OSHKOSH        TSTM      65  56  72 SW12G18   29.79R
$$

WIZ032>034-041-042-053>061-200900-
SOUTHWEST WISCONSIN

CITY           SKY/WX    TMP DP  RH WIND       PRES   REMARKS
LA CROSSE      RAIN      67  64  90 S18       29.71F FOG
SPARTA         RAIN      65  63  94 S12G18    29.79R
VIROQUA        CLOUDY    65  65 100 W9G22     29.81F
BOSCOBEL       LGT RAIN  69  62  78 SW9       29.85R
PRAIRIE DU CHI HVY RAIN  68  62  82 SW16G23   29.86R
PLATTEVILLE    FAIR      65  60  82 S14       29.85F
$$

WIZ056-057-062-063-064-067-068-200900-
SOUTH CENTRAL WISCONSIN

CITY           SKY/WX    TMP DP  RH WIND       PRES   REMARKS
BARABOO/DELLS  CLOUDY    66  56  70 NW12G22   29.85R
LONE ROCK      CLOUDY    72  59  63 W10G20    29.86R
WATERTOWN      MOCLDY    64  56  76 SW14G22   29.84R
MADISON        CLOUDY    66  57  72 SW9       29.83R
MIDDLETON      PTSUNNY   67  56  66 SW13G20   29.83R
MONROE         CLOUDY    61  55  82 S17G23    29.86S
JANESVILLE     MOCLDY    64  54  68 SW12G21   29.86S
$$

WIZ051-052-058>065-066-070>072-200900-
SOUTHEAST WISCONSIN

CITY           SKY/WX    TMP DP  RH WIND       PRES   REMARKS
MILWAUKEE      MOCLDY    65  52  62 SW23G30   29.83F
WAUKESHA       MOCLDY    63  52  67 SW14G22   29.85F
MILWAUKEE/TIMM PTCLDY    64  52  63 SW15G23   29.83F
RACINE         PTCLDY    65  52  62 SW17G26   29.86F
BURLINGTON     PTCLDY    61  52  73 S15G22    29.86F
KENOSHA        PTCLDY    65  53  65 SW14G22   29.86F
FOND DU LAC    CLOUDY    65  54  67 SW17G26   29.79R
SHEBOYGAN      CLOUDY    66  54  65 SW18G29   29.79F
WEST BEND      CLOUDY    64  52  63 SW13      29.81S
JUNEAU         CLOUDY    64  55  75 S17       29.84R
$$

LSZ147-162-200900-
LAKE SUPERIOR

STATION/POSITION TIME  TEMP    WIND        PRES    WAVE
                       AIR SEA DIR/SP/G            HT/PER
                 (UTC) (F)     (DEG/KT/KT) (MB)    (FT/S)
W MID LAKE BUOY  0650   55 48  210/  6/  8 1002.4R   1
DEVILS ISLAND    0700   61     220/ 13/ 15 1002.5S
PORT WING        0700   66     190/  4/  7 1002.4
SAXON HARBOR     0700   68     200/  2/  8 1002.7F
$$

LMZ867-665-643>646-200900-
LAKE MICHIGAN

STATION/POSITION TIME  TEMP    WIND        PRES    WAVE
                       AIR SEA DIR/SP/G            HT/PER
                 (UTC) (F)     (DEG/KT/KT) (MB)    (FT/S)
N MID LAKE BUOY  0650   61 58  210/ 23/ 29 1006.6F   8/ 7
NORTHPORT PIER   0700   60     170/  6/ 12 1007.1S
SISTER BAY       0742          180/ 11/ 13   N/A
KEWAUNEE LAKESHO 0700   60     190/ 10/ 12 1007.2F
SHEBOYGAN LAKESH 0700   60 55  180/ 15/ 16 1009.2F
PORT WASHINGTON  0740   66     210/  5/ 11 1010.2F
ATWATER BUOY     0700   64     200/ 14/ 17 1011.9F
MILWAUKEE LAKESH 0700   66     220/ 12/ 17   N/A
S MID LAKE BUOY  0650   65 64  200/ 21/ 25 1012.3R   4/ 5
KENOSHA   LAKESH 0700   66     210/ 11/ 17 1011.9S
$$

TC  - TEMPERATURE IN CELSIUS
VSB - VISIBILITY IN STATUTE MILES
WCI - WIND CHILL INDEX
HX  - HEAT INDEX




USA.gov is the U.S. government's official web portal to all federal, state and local government web resources and services.